Location: Newark
(44.3681°N, 100.3364°W)
Time: 10:19:59
(UTC+00:00)

Explorer 7 - Pass Details

Date: 20 February 2020
Orbit: 485 x 679 km, 50.3° (Epoch: 28 March)

Event Time Altitude Azimuth Distance (km) Brightness Sun altitude
Rises 22:44:26 0° 289° (WNW) 2,830 11.1 14.3°
Reaches altitude 10° 22:46:55 10° 298° (WNW) 1,891 10.1 13.9°
Maximum altitude 22:50:57 38° 7° (N) 861 7.7 13.3°
Drops below altitude 10° 22:54:44 10° 76° (ENE) 1,779 8.9 12.7°
Sets 22:57:00 0° 85° (E) 2,637 9.7 12.4°
